COSMOS 2361 1 25590U 98076A 21018.86039641 .00000032 00000-0 18339-4 0 9993 2 25590 82.9324 226.5104 0031118 196.8223 174.2097 13.72989424105629 SL-8 R/B 1 25592U 98076B 21018.79223434 .00000150 00000-0 14284-3 0 9997 2 25592 82.9323 215.5057 0026307 146.9205 223.7641 13.74149705106533